Simultaneous Nadir Overpasses (SNOs) Predictions

Prediction of SNOs between AQUA and METOP-A Satellite Orbit:

Table of predicted SNOs for the next 14.0 days since TLE Epoch: 3/22/2013
Index Date (AQUA) Time (AQUA) Lat,Lon (AQUA) SZA (AQUA ) Date (METOP-A) Time (METOP-A) Lat,Lon (METOP-A) SZA (METOP-A ) Distance(km) Time Diff (sec)
1 03/23/2013 20:52:49 73.84,-139.00 72.55 03/23/2013 20:51:37 73.83,-139.04 72.55 1.61 72
2 03/23/2013 21:42:16 -73.93, 28.45 107.38 03/23/2013 21:42:17 -73.94, 28.54 107.37 3.05 1
3 03/23/2013 22:31:45 73.99,-164.06 72.68 03/23/2013 22:32:56 73.97,-164.06 72.65 2.93 71
4 03/26/2013 16:27:05 73.84, -72.56 71.43 03/26/2013 16:26:03 73.87, -72.56 71.47 3.03 62
5 03/26/2013 17:16:32 -73.92, 94.90 108.50 03/26/2013 17:16:44 -73.93, 94.90 108.49 0.44 12
6 03/26/2013 18:06:07 74.30, -98.34 71.90 03/26/2013 18:07:16 74.30, -96.84 71.83 45.07 69
7 03/29/2013 12:01:20 73.86, -6.16 70.35 03/29/2013 12:00:29 73.85, -6.22 70.35 2.44 51
8 03/29/2013 12:50:47 -73.94, 161.31 109.59 03/29/2013 12:51:09 -73.96, 161.37 109.57 2.61 22
9 04/01/2013 07:35:35 73.86, 60.29 69.25 04/01/2013 07:34:55 73.87, 60.23 69.27 2.30 40
10 04/01/2013 08:25:02 -73.93,-132.23 110.69 04/01/2013 08:25:36 -73.93,-132.30 110.70 2.18 34
11 04/04/2013 03:09:50 73.87, 126.70 68.18 04/04/2013 03:09:21 73.88, 126.67 68.19 1.43 29
12 04/04/2013 03:59:17 -73.94, -65.81 111.77 04/04/2013 04:00:02 -73.94, -65.86 111.77 1.57 45




NCC Satellite Simultaneous Nadir Overpasses (SNOs) Prediction Service
